Location: Cormont
(50.5693°N, 1.7416°E)
Time: 13:00:21
(UTC+00:00)

Cosmos 2058 - Pass Details

Date: 21 October 2019
Orbit: 563 x 583 km, 82.5° (Epoch: 14 November)

Event Time Altitude Azimuth Distance (km) Brightness Sun altitude
Rises 19:03:41 0° 346° (NNW) 2,822 6.8 -21.9°
Reaches altitude 10° 19:05:55 10° 343° (NNW) 1,917 5.9 -22.3°
Maximum altitude 19:10:05 60° 264° (W) 673 3.4 -22.9°
Enters shadow 19:13:01 18° 189° (S) 1,431 4.9 -23.4°
